Powrót do katalogu

RESURS DK-1

AktywnyNaukaVLEO
NORAD 29228·PAYLOAD·🇷🇺 Russia

Wystrzelony Jun 15, 2006 z Baikonur Cosmodrome

Loading…

Następne Przeloty (najbliższe 24 godziny)

TLE

ŚwieżeSource: Space-Track

Epoka: Sep 14, 2026, 14:18 UTC

1 29228U 06021A   26257.59620716  .00001512  00000-0  90261-4 0  9991
2 29228  69.9301 108.0534 0005425 214.4413 145.6403 15.13511882116106

Śledź RESURS DK-1 w czasie rzeczywistym z AllMySat

Download on the App Store